Precipitable_Water
1.38 1.39 1.44 1.50 1.54 1.50 1.56 1.52 1.59 1.72 1.73 1.71 1.84 1.87 1.86 1.64 1.67 1.54 1.57 1.52 1.41 1.42 1.48 1.43 1.40 1.47 1.42 1.46 1.51 1.55 1.50 1.42 1.18 1.41 1.59 1.75 1.77 1.71 1.69 1.65 1.69 1.51 1.58
1.36 1.36 1.42 1.50 1.56 1.56 1.60 1.64 1.74 1.64 1.73 1.76 1.70 1.62 1.73 1.62 1.65 1.56 1.52 1.60 1.55 1.49 1.57 1.60 1.53 1.51 1.45 1.41 1.37 1.50 1.55 1.60 1.42 1.26 1.46 1.66 1.69 1.76 1.81 1.82 1.86 1.78 1.68
1.43 1.33 1.36 1.41 1.51 1.62 1.60 1.67 1.68 1.65 1.65 1.71 1.67 1.60 1.68 1.74 1.72 1.71 1.68 1.65 1.62 1.63 1.65 1.67 1.66 1.62 1.51 1.47 1.45 1.35 1.43 1.46 1.52 1.47 1.56 1.89 1.87 1.91 1.93 1.90 1.87 1.90 1.83
1.68 1.50 1.34 1.40 1.47 1.51 1.62 1.73 1.71 1.71 1.70 1.73 1.73 1.78 1.81 1.84 1.84 1.84 1.84 1.83 1.83 1.80 1.80 1.81 1.79 1.81 1.67 1.62 1.47 1.51 1.61 1.58 1.62 1.64 1.66 1.68 1.77 1.92 2.02 1.92 1.85 1.94 1.91
1.78 1.75 1.51 1.54 1.47 1.54 1.61 1.64 1.84 1.85 1.93 1.87 1.87 1.89 1.94 1.96 1.94 1.91 1.92 1.97 1.98 1.89 1.92 1.92 1.97 1.95 1.89 1.85 1.74 1.65 1.69 1.69 1.63 1.61 1.64 1.70 1.73 1.79 1.82 1.99 1.90 1.96 2.03
1.88 1.88 1.82 1.67 1.65 1.57 1.59 1.69 1.76 1.79 1.88 1.85 1.91 1.96 1.92 2.00 2.06 2.00 2.02 2.09 2.04 1.97 1.90 1.94 1.98 2.01 2.00 2.09 2.12 2.14 2.08 1.92 1.79 1.68 1.66 1.60 1.57 1.70 1.85 1.88 1.94 1.92 1.81
1.78 1.99 1.86 1.87 1.69 1.77 1.74 1.74 1.68 1.73 1.81 1.79 1.79 1.81 1.79 1.84 1.87 1.82 1.83 1.83 1.84 1.85 1.88 1.89 1.89 1.89 1.88 1.82 1.86 1.95 1.99 2.02 2.07 1.94 1.78 1.78 1.64 1.72 1.79 1.87 1.94 1.93 1.87
1.78 1.83 1.89 1.97 1.95 1.73 1.71 1.63 1.66 1.69 1.70 1.74 1.81 1.86 1.87 1.94 2.01 2.08 2.03 1.91 1.87 1.83 1.71 1.62 1.56 1.66 1.74 1.73 1.70 1.55 1.43 1.45 1.57 1.70 1.75 1.74 1.80 1.91 1.99 1.97 1.98 1.93 1.89
1.94 1.94 1.90 1.87 1.83 1.97 1.91 1.75 1.82 1.79 1.85 1.87 1.97 2.02 2.01 1.97 2.02 2.05 2.09 2.11 2.01 1.99 1.96 1.83 1.74 1.55 1.60 1.67 1.62 1.51 1.55 1.68 1.75 1.77 1.78 1.79 1.82 1.91 1.98 1.99 1.82 1.73 1.59
1.69 1.74 1.99 2.10 2.11 2.07 2.11 2.03 1.96 1.96 1.99 1.99 1.96 2.00 2.02 1.98 2.02 2.03 2.03 1.99 2.00 2.00 1.96 1.92 1.92 1.88 1.87 1.91 1.84 1.75 1.57 1.47 1.63 1.73 1.70 1.72 1.74 1.69 1.72 1.77 1.75 1.69 1.60
1.77 1.70 1.78 1.90 1.99 2.03 1.98 1.94 1.86 1.83 1.80 1.79 1.73 1.75 1.78 1.80 1.78 1.85 1.95 1.95 1.96 1.99 1.98 1.94 2.01 1.97 1.92 1.92 1.93 1.81 1.71 1.72 1.67 1.65 1.64 1.64 1.64 1.65 1.68 1.72 1.77 1.69 1.60
1.77 1.71 1.74 1.80 1.95 2.04 1.96 1.91 1.89 1.82 1.75 1.73 1.74 1.71 1.75 1.77 1.77 1.78 1.92 1.98 2.02 1.92 1.89 1.88 1.88 1.92 1.90 1.90 1.84 1.90 1.92 1.87 1.78 1.65 1.60 1.58 1.67 1.71 1.76 1.79 1.80 1.75 1.69
1.66 1.68 1.67 1.68 1.73 1.82 1.89 1.87 1.84 1.82 1.77 1.73 1.70 1.68 1.68 1.76 1.74 1.75 1.77 1.84 1.91 1.93 1.92 1.97 1.92 1.89 1.88 1.89 1.87 1.86 1.85 1.76 1.71 1.65 1.63 1.64 1.65 1.65 1.64 1.61 1.57 1.53 1.47
1.53 1.60 1.54 1.53 1.55 1.61 1.69 1.80 1.74 1.72 1.70 1.65 1.61 1.62 1.60 1.63 1.62 1.68 1.73 1.79 1.81 1.81 1.83 1.87 1.88 1.87 1.84 1.82 1.77 1.80 1.78 1.71 1.63 1.60 1.60 1.63 1.64 1.57 1.49 1.46 1.38 1.35 1.24
1.53 1.55 1.48 1.54 1.60 1.60 1.61 1.59 1.59 1.60 1.62 1.58 1.55 1.56 1.51 1.46 1.53 1.61 1.63 1.64 1.68 1.71 1.71 1.70 1.67 1.67 1.65 1.68 1.69 1.69 1.70 1.68 1.58 1.56 1.52 1.46 1.41 1.34 1.27 1.29 1.28 1.25 1.16
1.43 1.45 1.45 1.40 1.47 1.52 1.52 1.52 1.58 1.57 1.57 1.55 1.53 1.53 1.52 1.51 1.51 1.53 1.56 1.58 1.58 1.62 1.56 1.51 1.53 1.56 1.56 1.59 1.57 1.56 1.55 1.53 1.47 1.39 1.32 1.30 1.23 1.16 1.06 1.05 1.08 1.04 0.95
1.35 1.41 1.44 1.46 1.46 1.45 1.45 1.43 1.39 1.46 1.49 1.50 1.47 1.49 1.48 1.48 1.48 1.47 1.49 1.52 1.51 1.55 1.49 1.49 1.48 1.47 1.47 1.47 1.43 1.37 1.33 1.34 1.32 1.25 1.10 1.02 1.00 0.98 0.95 0.94 0.91 0.86 0.81
1.32 1.36 1.37 1.41 1.43 1.43 1.43 1.42 1.42 1.37 1.33 1.34 1.41 1.44 1.44 1.44 1.41 1.40 1.41 1.40 1.33 1.38 1.42 1.38 1.35 1.37 1.35 1.33 1.29 1.22 1.14 1.09 1.05 1.01 0.98 0.95 0.93 0.87 0.81 0.76 0.73 0.69 0.70
1.04 1.10 1.16 1.20 1.25 1.29 1.31 1.29 1.26 1.21 1.19 1.19 1.17 1.16 1.20 1.23 1.24 1.24 1.25 1.20 1.14 1.11 1.14 1.16 1.15 1.11 1.09 1.05 1.01 0.96 0.91 0.85 0.83 0.79 0.74 0.68 0.63 0.61 0.61 0.60 0.61 0.65 0.64
0.68 0.70 0.75 0.74 0.81 0.87 0.92 0.94 0.93 0.91 0.87 0.82 0.79 0.75 0.74 0.71 0.69 0.73 0.80 0.83 0.86 0.87 0.89 0.87 0.85 0.80 0.76 0.73 0.70 0.67 0.63 0.60 0.58 0.56 0.54 0.53 0.51 0.55 0.57 0.53 0.50 0.48 0.52
0.68 0.62 0.66 0.65 0.67 0.68 0.69 0.73 0.79 0.79 0.79 0.74 0.71 0.69 0.60 0.58 0.64 0.65 0.58 0.63 0.71 0.73 0.74 0.70 0.66 0.65 0.65 0.62 0.61 0.56 0.52 0.52 0.50 0.50 0.55 0.56 0.52 0.50 0.52 0.51 0.50 0.48 0.48
0.75 0.71 0.69 0.69 0.66 0.63 0.65 0.61 0.58 0.58 0.60 0.56 0.58 0.58 0.54 0.53 0.58 0.61 0.62 0.64 0.67 0.70 0.71 0.71 0.67 0.64 0.63 0.59 0.57 0.55 0.53 0.53 0.50 0.51 0.50 0.50 0.48 0.47 0.47 0.47 0.46 0.45 0.41
0.82 0.79 0.75 0.74 0.71 0.70 0.69 0.67 0.62 0.59 0.57 0.56 0.56 0.54 0.54 0.49 0.49 0.54 0.62 0.64 0.64 0.64 0.69 0.69 0.67 0.66 0.65 0.62 0.60 0.57 0.52 0.48 0.48 0.47 0.46 0.44 0.43 0.43 0.42 0.39 0.38 0.38 0.39
0.80 0.77 0.78 0.76 0.73 0.70 0.70 0.70 0.69 0.68 0.66 0.63 0.60 0.59 0.55 0.53 0.51 0.53 0.58 0.61 0.64 0.67 0.72 0.72 0.70 0.67 0.64 0.62 0.63 0.61 0.59 0.55 0.53 0.51 0.50 0.46 0.44 0.43 0.41 0.42 0.44 0.47 0.50
0.73 0.77 0.79 0.79 0.71 0.69 0.68 0.66 0.70 0.73 0.72 0.69 0.67 0.64 0.59 0.57 0.57 0.62 0.64 0.68 0.70 0.72 0.74 0.74 0.74 0.72 0.71 0.69 0.69 0.67 0.65 0.63 0.60 0.57 0.57 0.54 0.51 0.52 0.53 0.53 0.54 0.56 0.56
0.74 0.77 0.83 0.84 0.85 0.79 0.76 0.70 0.67 0.68 0.69 0.70 0.68 0.68 0.69 0.66 0.67 0.68 0.70 0.70 0.70 0.71 0.72 0.75 0.74 0.73 0.72 0.72 0.74 0.74 0.72 0.67 0.64 0.62 0.62 0.59 0.57 0.60 0.60 0.57 0.57 0.59 0.60
Wind_Speed
20 21 21 20 19 19 17 16 15 14 13 13 12 12 11 11 11 11 12 11 12 11 13 13 13 12 12 11 10 9 8 7 7 7 6 6 7 8 9 9 8 7 7
21 21 23 22 21 21 19 18 16 17 15 14 14 13 15 13 12 13 13 13 13 13 12 12 11 11 11 11 11 11 10 9 10 10 10 10 10 11 10 9 9 8 9
20 21 23 23 23 21 21 20 19 17 17 17 16 15 15 14 14 13 14 14 13 13 13 13 13 13 13 13 12 13 13 13 13 12 11 10 10 10 10 11 11 11 11
21 21 22 24 24 23 22 21 20 19 18 17 16 16 15 15 15 14 14 14 14 15 15 15 15 15 15 15 15 15 14 14 15 15 14 14 14 14 15 15 15 14 12
20 20 23 24 24 23 23 22 22 21 19 18 17 17 16 16 16 16 16 16 15 16 16 16 16 15 15 15 15 16 16 16 16 16 16 16 16 16 17 16 15 16 16
20 21 25 26 25 25 23 23 22 21 20 19 18 18 17 17 17 17 17 17 17 17 17 17 17 17 17 17 17 17 18 18 19 18 19 19 19 19 18 19 18 17 18
24 18 25 30 28 26 24 23 22 22 21 20 20 19 19 18 18 18 18 18 19 19 19 19 19 19 19 19 20 20 20 20 22 21 21 21 21 20 20 19 19 20 20
27 31 23 26 28 27 26 25 24 23 23 22 22 21 21 20 20 20 20 21 21 22 22 22 22 22 22 22 22 21 22 23 22 23 23 23 23 23 23 23 22 21 20
23 22 22 21 26 28 27 25 24 23 23 23 23 23 23 22 22 22 22 22 23 23 23 23 24 24 24 24 24 23 22 22 20 20 20 21 22 23 24 24 24 24 25
14 16 23 27 27 24 25 25 24 23 21 21 21 22 23 23 23 24 25 26 26 26 25 25 25 25 25 25 27 26 25 25 24 24 24 24 24 25 25 26 27 27 26
14 13 14 19 26 26 27 26 26 26 25 24 24 24 24 25 26 27 28 27 28 28 27 27 27 27 27 27 27 29 28 27 27 28 28 27 27 27 28 27 27 26 25
13 12 11 13 17 23 26 27 28 27 27 25 25 24 25 26 28 29 28 29 29 30 30 30 30 29 28 28 27 26 27 27 27 27 27 28 27 26 25 24 23 22 23
11 11 9 8 10 14 16 24 26 27 30 30 28 26 24 23 23 24 26 27 27 28 29 26 26 27 27 25 24 23 22 22 23 23 22 22 23 23 22 23 23 24 23
12 11 10 9 8 8 11 17 17 20 20 20 21 21 22 22 20 20 20 20 21 21 21 21 21 20 19 19 19 20 21 22 22 23 23 23 23 23 22 23 22 21 20
11 12 12 11 10 9 8 10 11 13 15 16 16 16 16 15 16 16 16 17 17 17 17 17 18 18 18 19 20 20 20 20 20 20 21 21 21 22 21 20 21 21 22
13 13 13 12 12 11 9 10 9 9 10 12 13 13 14 14 14 14 14 14 14 15 16 15 15 16 16 16 17 17 18 19 19 20 20 20 20 20 20 20 21 20 20
15 15 14 13 13 14 13 11 10 11 10 11 10 11 12 13 12 12 12 14 15 15 15 16 16 16 17 18 17 18 19 19 21 20 20 19 20 21 21 22 22 22 23
12 13 13 13 13 13 13 13 13 14 14 14 14 14 13 13 13 13 13 14 14 14 15 15 16 17 18 19 20 20 20 20 20 21 20 20 22 23 22 21 21 22 22
10 11 11 11 12 12 13 13 13 14 14 14 14 14 14 14 15 16 16 17 17 16 17 18 18 19 20 20 21 21 22 22 22 23 23 22 21 22 21 22 22 22 22
9 9 10 10 10 11 12 13 13 13 13 13 14 14 15 15 16 16 17 17 18 18 18 18 19 20 20 21 21 21 22 22 22 22 22 22 22 22 22 21 21 22 21
8 9 10 10 11 11 13 14 14 14 14 15 15 15 15 16 16 16 17 18 18 18 18 19 19 19 20 20 20 21 21 21 22 22 22 21 21 21 20 20 20 20 21
11 9 9 11 12 11 11 11 12 12 12 13 14 15 15 16 16 17 17 17 17 17 17 18 18 19 19 20 20 20 21 21 21 21 20 20 20 20 20 21 22 22 23
6 8 10 8 8 10 10 10 11 11 10 10 9 10 10 12 12 12 12 13 13 14 13 14 15 16 16 17 18 18 19 19 20 20 20 21 22 22 23 24 24 23 23
11 10 10 11 10 11 11 12 11 12 13 13 13 13 13 13 13 14 15 15 15 16 16 16 17 18 19 19 20 20 21 21 21 22 22 23 23 23 23 23 23 23 23
13 14 13 13 14 14 14 15 15 15 15 15 16 16 17 17 17 17 17 17 18 18 19 20 20 21 21 21 22 23 23 23 23 23 23 23 23 23 23 23 23 24 24
14 15 15 15 13 14 15 15 16 18 17 17 18 18 18 19 19 19 20 20 21 21 22 23 23 23 24 24 24 24 23 24 24 23 23 23 23 24 24 24 23 24 24
Wind_Direction
210 210 209 210 210 209 211 209 208 209 207 210 212 217 220 221 226 231 233 237 241 249 251 260 266 266 268 266 271 276 286 288 287 292 288 277 280 288 301 311 316 319 324
214 214 212 212 213 214 216 216 217 219 219 220 223 226 229 234 238 237 238 242 246 251 255 260 267 266 266 269 271 270 275 285 282 280 283 278 282 283 292 294 307 295 306
216 215 215 215 215 217 218 219 221 221 222 226 230 233 233 236 237 241 243 245 250 251 255 258 263 267 268 269 270 270 272 276 277 279 281 281 287 280 286 290 296 295 289
221 219 219 218 219 219 220 221 222 224 225 228 230 233 234 236 239 242 244 249 252 254 255 258 264 268 270 267 268 268 272 275 275 274 277 279 281 279 282 281 284 279 280
226 230 225 224 223 222 222 223 224 226 231 230 233 235 236 239 244 245 248 251 254 255 257 259 262 267 269 269 269 270 270 272 274 273 276 278 281 280 281 281 279 270 274
229 237 241 227 224 223 224 224 225 228 231 233 235 237 241 244 247 249 252 255 254 258 260 263 264 266 268 269 271 272 272 271 272 272 274 276 279 277 277 278 276 272 272
234 239 246 226 222 222 224 224 226 229 232 234 238 241 243 246 247 251 254 258 255 259 262 264 267 268 269 270 270 270 273 275 273 272 273 275 276 276 276 275 275 274 273
243 235 246 226 218 224 227 229 231 233 236 239 241 243 246 250 252 256 258 260 260 262 263 266 268 269 270 270 270 270 273 274 274 274 273 273 274 275 276 274 272 273 272
236 232 231 222 230 229 228 229 232 235 239 242 246 249 251 253 256 258 260 263 263 263 267 268 268 268 270 271 270 269 272 273 275 274 274 275 276 279 277 273 272 271 274
246 251 239 236 240 233 226 230 232 235 238 243 247 250 253 255 259 262 263 266 265 265 267 269 269 268 270 273 270 268 267 268 271 273 274 276 278 279 279 277 275 269 273
257 260 257 250 244 237 234 236 236 239 242 246 250 254 258 260 262 264 266 266 266 265 266 268 268 270 270 273 272 269 266 267 270 273 274 275 278 279 278 276 275 271 272
265 260 263 267 240 236 234 237 239 241 246 247 253 257 260 262 265 266 267 268 267 266 268 267 267 268 272 272 271 272 269 267 270 273 274 275 277 279 277 275 275 268 270
255 255 254 266 258 245 242 240 240 245 248 250 255 258 260 263 266 269 267 267 269 268 267 266 266 266 269 269 268 267 269 269 270 274 275 275 278 277 276 274 274 272 273
249 245 246 256 261 260 266 235 239 242 243 242 251 252 257 262 267 271 267 265 267 267 266 265 264 264 266 263 265 267 267 272 274 274 274 276 277 279 277 275 274 268 270
250 247 256 254 258 267 251 236 236 241 242 243 248 248 252 259 262 268 268 269 267 263 263 264 266 267 264 264 266 269 269 271 275 277 277 277 276 277 275 276 273 267 272
247 251 251 252 255 250 245 238 242 243 243 241 246 252 258 262 264 266 266 267 266 266 265 266 267 267 269 264 269 268 272 274 275 278 279 276 277 275 276 277 277 276 274
247 248 251 253 250 251 251 245 247 250 258 255 261 261 263 264 263 266 268 270 270 271 265 262 266 267 265 262 268 271 273 275 275 276 278 277 276 277 280 280 279 277 278
241 242 247 249 249 249 250 251 249 253 259 265 267 269 270 268 268 271 272 273 275 274 268 269 268 269 271 271 274 276 275 277 278 278 279 279 277 276 276 277 279 279 279
238 241 244 244 245 246 247 251 254 258 264 265 267 270 271 271 272 273 274 275 276 275 273 272 271 272 273 273 272 274 275 276 277 276 276 277 277 276 277 276 278 279 281
245 241 240 242 244 245 247 250 253 257 259 263 264 266 268 269 270 270 270 272 272 272 272 273 273 273 272 273 273 274 274 275 275 275 276 278 277 280 277 278 280 281 282
247 244 243 246 249 256 257 256 256 259 261 262 265 266 269 268 270 273 272 273 273 275 270 272 274 274 274 275 275 275 275 277 276 276 278 276 278 279 279 279 282 284 284
241 249 251 251 253 257 261 261 263 263 261 265 266 266 268 270 272 272 273 274 276 278 274 273 274 276 277 277 277 278 278 277 278 278 277 277 278 279 278 280 282 284 285
251 254 259 262 253 251 259 264 263 261 262 265 266 269 273 276 271 275 275 278 277 281 278 277 279 281 280 280 280 280 280 279 278 277 278 278 279 279 280 281 281 282 283
262 270 284 256 261 262 267 267 271 270 261 264 264 267 274 279 276 273 274 279 280 279 278 280 281 284 280 279 280 281 280 278 277 277 279 280 280 280 280 280 279 280 281
267 266 272 279 265 267 272 273 271 272 269 270 269 269 271 275 279 279 276 277 280 280 278 278 280 282 281 279 280 280 279 279 277 278 281 281 281 279 278 278 279 280 281
272 270 272 275 277 271 270 273 276 271 272 271 271 273 274 272 275 278 277 278 279 280 281 280 279 280 281 279 279 282 280 278 277 279 280 281 280 280 278 280 280 281 280